EW4745 Weather Reports


time (UTC)temp
C
wind
direction
speed
KPH
gust
KPH
rain 1hr
cm
rain 24hr
cm
rain mn
cm
humidity
%
barometer
mb
20260509034941 23 116 0.0 3.2 0.00 0.03 0.03 93 1007.9
20260509034912 23 116 0.0 3.2 0.00 0.00 0.03 93 1009.1
20260509034435 23 97 0.0 3.2 0.00 0.03 0.03 93 1007.9
20260509034413 23 105 0.0 3.2 0.00 0.00 0.03 93 1009.1
20260509033940 23 111 1.6 3.2 0.00 0.00 0.03 93 1008.8
20260509033929 23 106 0.0 4.8 0.00 0.03 0.03 93 1007.8
20260509033443 23 91 1.6 4.8 0.00 0.00 0.03 93 1008.8
20260509032937 23 32 0.0 1.6 0.00 0.00 0.03 92 1008.8
20260509032918 23 32 1.6 6.4 0.00 0.03 0.03 92 1007.6
20260509032436 23 96 1.6 1.6 0.00 0.00 0.03 92 1008.8
20260509032412 23 96 1.6 4.8 0.00 0.03 0.03 92 1007.6
20260509032029 23 52 0.0 4.8 0.00 0.00 0.03 92 1008.5
20260509031528 23 105 0.0 3.2 0.00 0.00 0.03 92 1008.5
20260509031400 23 60 1.6 12.9 0.00 0.03 0.03 92 1007.2
20260509031028 23 61 1.6 12.9 0.00 0.00 0.03 92 1008.5
20260509030852 23 86 1.6 4.8 0.00 0.03 0.03 92 1007.3
20260509030529 23 65 0.0 3.2 0.00 0.00 0.03 92 1008.5
20260509030029 23 107 0.0 3.2 0.00 0.00 0.03 92 1008.5
20260509025529 23 125 0.0 1.6 0.00 0.00 0.03 92 1008.5
20260509025335 23 124 1.6 6.4 0.00 0.03 0.03 92 1007.4
20260509025028 23 55 4.8 4.8 0.00 0.00 0.03 92 1008.5
20260509024829 23 69 3.2 11.3 0.00 0.03 0.03 92 1007.3
20260509024527 23 58 0.0 11.3 0.00 0.00 0.03 92 1008.5
20260509024323 23 42 3.2 9.7 0.00 0.03 0.03 92 1007.2
20260509024027 23 61 3.2 9.7 0.00 0.00 0.03 92 1008.1
20260509023527 23 44 4.8 6.4 0.00 0.00 0.03 92 1008.1
20260509023310 23 56 1.6 11.3 0.00 0.03 0.03 92 1006.9
20260509023029 23 69 3.2 4.8 0.00 0.00 0.03 92 1008.1
20260509022805 23 59 1.6 11.3 0.00 0.03 0.03 92 1006.9
20260509022526 23 74 0.0 11.3 0.00 0.00 0.03 92 1008.1
20260509022259 23 47 3.2 12.9 0.00 0.03 0.03 92 1006.8
20260509022027 23 90 3.2 4.8 0.00 0.00 0.03 92 1008.1
20260509021753 23 49 3.2 12.9 0.00 0.03 0.03 92 1006.8
20260509021527 23 86 1.6 12.9 0.00 0.00 0.03 91 1007.8
20260509021247 23 88 3.2 12.9 0.00 0.03 0.03 91 1006.5
20260509021025 23 78 3.2 8.0 0.00 0.00 0.03 91 1007.5
20260509020741 23 55 3.2 12.9 0.00 0.03 0.03 91 1006.3
20260509020526 23 48 1.6 12.9 0.00 0.00 0.03 91 1007.5
20260509020026 23 69 3.2 4.8 0.00 0.00 0.03 91 1007.5
20260509015728 23 76 4.8 14.5 0.00 0.03 0.03 91 1006.4
20260509015526 23 82 3.2 6.4 0.00 0.00 0.03 91 1007.5
20260509015222 23 67 4.8 14.5 0.00 0.03 0.03 91 1006.4
20260509015025 23 71 8.0 8.0 0.00 0.00 0.03 91 1007.5
20260509014526 23 76 1.6 8.0 0.00 0.00 0.03 91 1007.5
20260509014211 23 59 4.8 12.9 0.00 0.03 0.03 91 1006.4
20260509014026 23 55 4.8 6.4 0.00 0.00 0.03 91 1007.5
20260509013705 23 35 3.2 8.0 0.00 0.03 0.03 91 1006.5
20260509013524 23 67 3.2 8.0 0.00 0.00 0.03 91 1007.8
20260509013159 23 52 3.2 9.7 0.00 0.03 0.03 91 1006.3
20260509013024 23 63 1.6 6.4 0.00 0.00 0.03 91 1007.5
20260509012653 23 74 3.2 9.7 0.00 0.03 0.03 91 1006.1
20260509012526 23 42 6.4 6.4 0.00 0.00 0.03 91 1007.5
20260509012147 23 56 1.6 6.4 0.00 0.03 0.03 91 1006.3
20260509012025 23 62 1.6 1.6 0.00 0.00 0.03 91 1007.5
20260509011640 23 63 1.6 9.7 0.00 0.03 0.03 91 1006.3
20260509011525 23 92 1.6 4.8 0.00 0.00 0.03 91 1007.5
20260509011135 23 41 1.6 9.7 0.00 0.03 0.03 91 1006.3
20260509011026 23 49 3.2 8.0 0.00 0.00 0.03 91 1007.5
20260509010629 23 85 1.6 6.4 0.00 0.03 0.03 90 1006.2
20260509010524 23 71 1.6 3.2 0.00 0.00 0.03 91 1007.5
20260509010123 23 100 3.2 11.3 0.00 0.03 0.03 91 1006.1
20260509010023 23 42 0.0 3.2 0.00 0.00 0.03 91 1007.5
20260509005524 23 62 4.8 8.0 0.00 0.00 0.03 90 1007.1
20260509005111 23 50 3.2 12.9 0.00 0.03 0.03 90 1005.8
20260509005023 23 45 8.0 12.9 0.00 0.00 0.03 90 1007.1
20260509004604 23 69 3.2 8.0 0.00 0.03 0.03 90 1006.2
20260509004522 23 85 1.6 8.0 0.00 0.00 0.03 90 1007.5
20260509004058 23 46 1.6 6.4 0.00 0.03 0.03 90 1006.2
20260509004023 23 83 4.8 6.4 0.00 0.00 0.03 90 1007.5
20260509003553 23 67 1.6 6.4 0.00 0.03 0.03 90 1006.2
20260509003523 23 64 0.0 3.2 0.00 0.00 0.03 90 1007.5
20260509003047 23 54 3.2 9.7 0.00 0.03 0.03 90 1006.1
20260509003026 23 51 1.6 4.8 0.00 0.00 0.03 90 1007.1
20260509002541 23 45 3.2 9.7 0.00 0.03 0.03 90 1006.2
20260509002522 23 74 1.6 9.7 0.00 0.00 0.03 90 1007.5
20260509002035 23 58 3.2 9.7 0.00 0.03 0.03 90 1005.9
20260509002024 23 71 3.2 8.0 0.00 0.00 0.03 90 1007.1
20260509001522 23 57 9.7 9.7 0.00 0.00 0.03 90 1007.5
20260509001024 23 51 3.2 4.8 0.00 0.00 0.03 90 1007.5
20260509000523 23 52 3.2 8.0 0.00 0.00 0.03 90 1007.1
20260509000518 23 52 3.2 9.7 0.00 0.03 0.03 90 1005.9
20260509000024 23 80 1.6 3.2 0.00 0.00 0.03 90 1007.1
20260509000011 23 80 3.2 9.7 0.00 0.03 0.03 90 1005.9
20260508235523 23 58 0.0 6.4 0.00 0.00 0.03 89 1007.5
20260508235506 23 58 3.2 8.0 0.00 0.03 0.03 89 1006.1
20260508235022 23 118 6.4 8.0 0.00 0.00 0.03 89 1007.1
20260508235000 23 118 3.2 12.9 0.00 0.03 0.03 89 1005.9
20260508234523 23 53 6.4 8.0 0.00 0.00 0.03 89 1006.8
20260508234457 23 95 3.2 12.9 0.00 0.03 0.03 89 1005.7
20260508234023 23 63 0.0 4.8 0.00 0.00 0.03 90 1007.1
20260508233957 23 63 3.2 12.9 0.00 0.03 0.03 90 1005.9
20260508233520 23 71 4.8 8.0 0.00 0.00 0.03 89 1007.1
20260508233455 23 57 3.2 12.9 0.00 0.03 0.03 89 1005.9
20260508233021 23 134 1.6 12.9 0.00 0.00 0.03 90 1007.1
20260508232955 23 52 3.2 12.9 0.00 0.03 0.03 89 1006.1
20260508232523 23 61 1.6 4.8 0.00 0.00 0.03 90 1007.5
20260508232455 23 61 4.8 12.9 0.00 0.03 0.03 90 1006.3
20260508232020 23 76 4.8 12.9 0.00 0.00 0.03 90 1007.1
20260508231958 23 36 4.8 17.7 0.00 0.03 0.03 90 1006.0
20260508231521 23 55 8.0 9.7 0.00 0.00 0.03 89 1006.8
20260508231455 23 54 4.8 17.7 0.00 0.03 0.03 89 1005.8
20260508231021 23 94 4.8 8.0 0.00 0.00 0.03 90 1007.1
20260508230955 23 79 4.8 12.9 0.00 0.03 0.03 90 1005.9
20260508230521 23 62 1.6 8.0 0.00 0.00 0.03 89 1007.1
20260508230455 23 68 4.8 11.3 0.00 0.03 0.03 89 1006.0
20260508230020 23 46 3.2 9.7 0.00 0.00 0.03 89 1007.1
20260508225955 23 48 4.8 11.3 0.00 0.03 0.03 89 1005.9
20260508225520 24 73 0.0 6.4 0.00 0.00 0.03 89 1007.1
20260508225457 24 73 4.8 14.5 0.00 0.03 0.03 89 1005.9
20260508225018 24 84 8.0 14.5 0.00 0.00 0.03 89 1006.8
20260508224955 24 84 4.8 14.5 0.00 0.03 0.03 89 1005.7
20260508224520 24 105 4.8 9.7 0.00 0.00 0.03 89 1006.8
20260508224454 24 83 3.2 11.3 0.00 0.03 0.03 89 1005.8
20260508224018 24 79 3.2 4.8 0.00 0.00 0.03 89 1007.1
20260508223955 24 75 3.2 12.9 0.00 0.03 0.03 89 1005.9
20260508223519 24 59 0.0 3.2 0.00 0.00 0.03 89 1007.5
20260508223453 24 63 3.2 12.9 0.00 0.03 0.03 89 1006.1
20260508223019 24 74 4.8 9.7 0.00 0.00 0.03 88 1007.1
20260508222447 24 67 3.2 11.3 0.00 0.03 0.03 89 1006.0
20260508222441 24 70 3.2 11.3 0.00 0.00 0.03 89 1007.1
20260508221941 24 74 4.8 14.5 0.00 0.03 0.03 89 1006.0
20260508221441 24 76 4.8 9.7 0.00 0.00 0.03 88 1007.5
20260508221434 24 80 3.2 9.7 0.00 0.03 0.03 88 1006.2
20260508220940 24 51 3.2 6.4 0.00 0.00 0.03 89 1007.5
20260508220929 24 51 3.2 14.5 0.00 0.03 0.03 89 1006.2
20260508220437 24 53 4.8 6.4 0.00 0.00 0.03 88 1007.5
20260508220423 24 53 1.6 6.4 0.00 0.03 0.03 88 1006.4
20260508220019 24 65 3.2 3.2 0.00 0.00 0.03 88 1007.5
20260508215517 24 98 3.2 6.4 0.00 0.00 0.03 88 1007.8
20260508215410 24 61 3.2 11.3 0.00 0.03 0.03 88 1006.5
20260508215017 25 80 4.8 6.4 0.00 0.00 0.03 87 1007.8
20260508214904 24 67 1.6 6.4 0.00 0.03 0.03 87 1006.5
20260508214516 24 81 0.0 3.2 0.00 0.00 0.03 88 1007.8
20260508214359 24 128 1.6 6.4 0.00 0.03 0.03 89 1006.5
20260508214017 24 131 4.8 6.4 0.00 0.00 0.03 88 1007.8
20260508213852 24 25 3.2 11.3 0.00 0.03 0.03 88 1006.6
20260508213518 24 55 1.6 6.4 0.00 0.00 0.03 88 1007.5
20260508213347 24 65 3.2 11.3 0.00 0.03 0.03 88 1006.4
20260508213015 24 105 3.2 6.4 0.00 0.00 0.03 88 1007.8
20260508212841 24 58 3.2 9.7 0.00 0.03 0.03 88 1006.7
20260508212516 23 41 1.6 4.8 0.00 0.00 0.03 88 1008.1
20260508212335 23 59 3.2 14.5 0.00 0.03 0.03 88 1006.9
20260508212017 23 66 1.6 11.3 0.00 0.00 0.03 88 1008.1
20260508211829 24 38 3.2 14.5 0.00 0.03 0.03 88 1007.0
20260508211517 24 84 3.2 6.4 0.00 0.00 0.03 88 1008.1
20260508211015 24 71 4.8 4.8 0.00 0.00 0.03 88 1008.1
20260508210816 24 73 3.2 9.7 0.00 0.03 0.03 88 1007.0
20260508210515 24 67 8.0 9.7 0.00 0.00 0.03 88 1008.1
20260508210310 24 55 4.8 16.1 0.00 0.03 0.03 88 1007.1
20260508210015 23 61 3.2 4.8 0.00 0.00 0.03 88 1008.1
20260508205804 24 103 4.8 16.1 0.00 0.03 0.03 88 1007.0
20260508205515 24 55 3.2 9.7 0.00 0.00 0.03 88 1008.1
20260508205300 24 57 4.8 14.5 0.00 0.03 0.03 88 1007.0
20260508205014 24 73 4.8 6.4 0.00 0.00 0.03 88 1008.5
20260508204753 24 79 3.2 9.7 0.00 0.03 0.03 88 1007.2
20260508204514 23 62 3.2 8.0 0.00 0.00 0.03 88 1008.5
20260508204246 24 348 4.8 14.5 0.00 0.03 0.03 87 1007.2
20260508204014 24 14 6.4 9.7 0.00 0.00 0.03 87 1008.5
20260508203741 24 337 4.8 14.5 0.00 0.03 0.03 87 1007.3
20260508203514 24 53 6.4 8.0 0.00 0.00 0.03 88 1008.5
20260508203234 23 55 4.8 16.1 0.00 0.03 0.03 88 1007.4
20260508203014 23 77 3.2 6.4 0.00 0.00 0.03 88 1008.5
20260508202514 23 62 8.0 9.7 0.00 0.00 0.03 88 1008.8
20260508202223 23 68 3.2 14.5 0.00 0.03 0.03 88 1007.6
20260508202014 23 28 0.0 6.4 0.00 0.00 0.03 88 1008.8
20260508201717 23 15 3.2 14.5 0.00 0.03 0.03 88 1007.7
20260508201514 23 348 1.6 14.5 0.00 0.00 0.03 88 1008.8
20260508201211 23 76 3.2 9.7 0.00 0.03 0.03 88 1007.8
20260508201012 23 24 3.2 9.7 0.00 0.00 0.03 88 1009.1
20260508200704 23 25 1.6 9.7 0.00 0.03 0.03 88 1007.9
20260508200514 23 348 3.2 9.7 0.00 0.00 0.03 88 1009.1
20260508200159 23 332 3.2 9.7 0.00 0.03 0.03 88 1007.8
20260508200012 23 46 1.6 3.2 0.00 0.00 0.03 88 1009.1
20260508195655 23 37 4.8 11.3 0.00 0.03 0.03 88 1007.8
20260508195513 23 61 1.6 8.0 0.00 0.00 0.03 88 1009.1
20260508195148 23 70 4.8 14.5 0.00 0.03 0.03 89 1007.9
20260508195013 23 61 3.2 11.3 0.00 0.00 0.03 88 1009.1
20260508194643 23 64 4.8 14.5 0.00 0.03 0.03 88 1007.9
20260508194538 23 55 4.8 6.4 0.00 0.00 0.03 89 1009.1
20260508194136 23 17 3.2 16.1 0.00 0.03 0.03 89 1008.0
20260508194036 23 343 3.2 8.0 0.00 0.00 0.03 89 1009.1
20260508193540 23 62 1.6 4.8 0.00 0.00 0.03 89 1009.1
20260508193124 23 29 3.2 14.5 0.00 0.03 0.03 89 1008.0
20260508193036 23 66 0.0 14.5 0.00 0.00 0.03 89 1009.1
20260508192617 23 36 3.2 9.7 0.00 0.03 0.03 90 1008.2
20260508192540 23 104 4.8 6.4 0.00 0.00 0.03 90 1009.1
20260508192112 23 325 4.8 12.9 0.00 0.03 0.03 89 1008.1
20260508192040 23 26 6.4 9.7 0.00 0.00 0.03 89 1009.5
20260508191609 23 67 6.4 9.7 0.00 0.00 0.03 90 1009.1
20260508191606 23 71 4.8 14.5 0.00 0.03 0.03 90 1008.2
20260508191114 23 64 14.5 14.5 0.00 0.00 0.03 90 1009.5
20260508190611 22 50 4.8 4.8 0.00 0.00 0.03 89 1009.5
20260508190554 22 50 3.2 9.7 0.00 0.03 0.03 89 1008.5
20260508190111 22 21 0.0 4.8 0.00 0.00 0.03 90 1009.5
20260508190048 22 21 3.2 9.7 0.00 0.03 0.03 90 1008.5
20260508185615 23 342 6.4 8.0 0.00 0.00 0.03 89 1009.5
20260508185542 23 342 4.8 9.7 0.00 0.03 0.03 89 1008.3
20260508185111 22 91 6.4 8.0 0.00 0.00 0.03 89 1009.5
20260508185036 22 59 4.8 12.9 0.00 0.03 0.03 89 1008.3
20260508184614 22 86 3.2 9.7 0.00 0.00 0.03 89 1009.5
20260508184530 22 51 3.2 12.9 0.00 0.03 0.03 90 1008.3
20260508184139 22 32 0.0 6.4 0.00 0.00 0.03 90 1009.8
20260508183642 22 106 0.0 1.6 0.00 0.00 0.03 91 1009.8
20260508183518 22 51 4.8 12.9 0.00 0.03 0.03 90 1008.6
20260508183140 22 59 3.2 12.9 0.00 0.00 0.03 90 1009.8
20260508183012 22 30 3.2 12.9 0.00 0.03 0.03 90 1008.7
20260508182711 22 321 1.6 11.3 0.00 0.00 0.03 90 1010.2
20260508182509 22 55 3.2 9.7 0.00 0.03 0.03 91 1008.8
20260508182227 22 61 3.2 6.4 0.00 0.00 0.03 91 1010.2
20260508182009 22 128 3.2 9.7 0.00 0.03 0.03 91 1008.9
20260508181711 22 68 3.2 6.4 0.00 0.00 0.03 91 1010.2
20260508181508 22 78 3.2 9.7 0.00 0.03 0.03 91 1009.2
20260508181213 22 58 1.6 8.0 0.00 0.00 0.03 91 1010.5
20260508181009 22 55 3.2 12.9 0.00 0.03 0.03 92 1009.2
20260508180711 21 67 1.6 8.0 0.00 0.00 0.03 91 1010.2
20260508180508 21 62 3.2 12.9 0.00 0.03 0.03 91 1009.3
20260508180211 21 65 1.6 6.4 0.00 0.00 0.03 91 1010.5
20260508175710 21 42 0.0 6.4 0.00 0.00 0.03 91 1010.5
20260508175507 21 66 3.2 9.7 0.00 0.03 0.03 91 1009.3
20260508175209 21 74 1.6 8.0 0.00 0.00 0.03 91 1010.5
20260508175007 21 60 1.6 9.7 0.00 0.03 0.03 91 1009.3
20260508174711 21 57 4.8 4.8 0.00 0.00 0.03 91 1010.5
20260508174507 21 64 1.6 6.4 0.00 0.03 0.03 91 1009.4
20260508174212 21 38 1.6 3.2 0.00 0.00 0.03 91 1010.8
20260508174006 21 37 1.6 6.4 0.00 0.03 0.03 91 1009.5
20260508173712 21 68 0.0 1.6 0.00 0.00 0.03 91 1010.5
20260508173509 21 71 1.6 6.4 0.00 0.03 0.03 91 1009.4
20260508173211 21 68 4.8 6.4 0.00 0.00 0.03 91 1010.5
20260508173007 21 57 1.6 9.7 0.00 0.03 0.03 91 1009.5
20260508172720 21 14 0.0 1.6 0.00 0.00 0.03 91 1010.5
20260508172507 21 55 4.8 14.5 0.00 0.03 0.03 91 1009.4
20260508172221 21 59 1.6 4.8 0.00 0.00 0.03 91 1010.5
20260508172007 21 60 4.8 14.5 0.00 0.03 0.03 91 1009.4
20260508171725 21 66 6.4 14.5 0.00 0.00 0.03 91 1010.5
20260508171505 21 48 1.6 6.4 0.00 0.03 0.03 90 1009.5
20260508171221 21 19 4.8 4.8 0.00 0.00 0.03 91 1010.8
20260508171004 21 69 0.0 6.4 0.00 0.03 0.03 91 1009.5
20260508170723 21 74 3.2 3.2 0.00 0.00 0.03 91 1010.8
20260508170223 20 9 0.0 0.0 0.00 0.00 0.03 90 1011.2
20260508170002 20 342 1.6 8.0 0.00 0.03 0.03 90 1009.9
20260508165720 20 55 0.0 8.0 0.00 0.00 0.03 90 1010.8
20260508165457 20 324 1.6 8.0 0.00 0.03 0.03 90 1009.7
20260508165220 20 5 0.0 4.8 0.00 0.00 0.03 90 1010.8
20260508164951 20 18 3.2 8.0 0.00 0.03 0.03 90 1009.8
20260508164720 20 56 1.6 8.0 0.00 0.00 0.03 90 1011.2
20260508164444 20 58 3.2 8.0 0.00 0.03 0.03 90 1009.9
20260508164218 20 30 4.8 8.0 0.00 0.00 0.03 90 1010.8
20260508163720 20 342 1.6 4.8 0.00 0.00 0.03 90 1011.2
20260508163219 20 19 3.2 6.4 0.00 0.00 0.03 89 1011.2
20260508162927 20 348 3.2 12.9 0.00 0.03 0.03 89 1009.9
20260508162720 20 348 3.2 8.0 0.00 0.00 0.03 89 1010.8
20260508162420 20 24 1.6 9.7 0.00 0.03 0.03 90 1009.8
20260508162219 20 21 0.0 9.7 0.00 0.00 0.03 90 1010.8
20260508161914 20 15 1.6 12.9 0.00 0.03 0.03 90 1009.8
20260508161719 20 57 0.0 3.2 0.00 0.00 0.03 90 1011.2
20260508161415 20 70 3.2 12.9 0.00 0.03 0.03 90 1010.1
20260508161219 20 324 0.0 4.8 0.00 0.00 0.03 90 1011.2
20260508160902 20 14 3.2 14.5 0.00 0.03 0.03 90 1010.2
20260508160718 20 168 0.0 8.0 0.00 0.00 0.03 91 1011.2
20260508160356 20 355 3.2 14.5 0.00 0.03 0.03 91 1009.9
20260508160217 20 25 3.2 11.3 0.00 0.00 0.03 90 1010.8
20260508155853 20 316 3.2 16.1 0.00 0.03 0.03 91 1009.9
20260508155720 20 74 3.2 8.0 0.00 0.00 0.03 90 1011.2
20260508155353 20 16 3.2 16.1 0.00 0.03 0.03 90 1010.1
20260508155218 20 26 1.6 8.0 0.00 0.00 0.03 91 1011.2
20260508154853 20 321 3.2 6.4 0.00 0.03 0.03 91 1010.1
20260508154717 20 14 1.6 6.4 0.00 0.00 0.03 91 1011.2
20260508154354 20 29 1.6 6.4 0.00 0.03 0.03 91 1010.1
20260508154217 20 89 3.2 3.2 0.00 0.00 0.03 91 1011.5
20260508153853 20 32 1.6 8.0 0.00 0.03 0.03 91 1010.2
20260508153716 20 86 1.6 4.8 0.00 0.00 0.03 91 1011.2
20260508153351 20 34 3.2 8.0 0.00 0.03 0.03 91 1010.1
20260508153216 20 63 4.8 6.4 0.00 0.00 0.03 91 1011.2
20260508152852 20 61 1.6 8.0 0.00 0.03 0.03 91 1010.1
20260508152718 20 61 0.0 8.0 0.00 0.00 0.03 91 1011.2
20260508152352 20 34 1.6 4.8 0.00 0.03 0.03 91 1010.3
20260508152217 20 15 1.6 3.2 0.00 0.00 0.03 92 1011.5
20260508151849 20 347 1.6 6.4 0.00 0.03 0.03 91 1010.3
20260508151715 20 30 3.2 3.2 0.00 0.00 0.03 92 1011.5
20260508151216 20 18 0.0 4.8 0.00 0.00 0.03 91 1011.5
20260508150849 20 22 1.6 6.4 0.00 0.03 0.03 91 1010.3
20260508150716 20 71 1.6 4.8 0.00 0.00 0.03 91 1011.5
20260508150347 20 43 1.6 6.4 0.00 0.03 0.03 91 1010.4
20260508150216 20 76 1.6 6.4 0.00 0.00 0.03 91 1011.9
20260508145716 20 32 0.0 0.0 0.00 0.00 0.03 91 1011.9
20260508145345 20 98 0.0 3.2 0.00 0.03 0.03 91 1010.6
20260508145215 20 29 0.0 0.0 0.00 0.00 0.03 91 1011.9
20260508144843 20 41 0.0 3.2 0.00 0.03 0.03 91 1010.7
20260508144714 20 58 0.0 0.0 0.00 0.00 0.03 91 1011.9
20260508144347 20 315 0.0 4.8 0.00 0.03 0.03 92 1010.6
20260508144213 20 25 0.0 1.6 0.00 0.00 0.03 92 1011.9
20260508143713 19 88 0.0 0.0 0.00 0.00 0.03 92 1011.5
20260508143345 19 46 1.6 6.4 0.00 0.03 0.03 92 1010.3
20260508143215 19 117 1.6 3.2 0.00 0.00 0.03 92 1011.5
20260508142839 19 42 1.6 6.4 0.00 0.03 0.03 92 1010.3
20260508142715 19 55 1.6 4.8 0.00 0.00 0.03 92 1011.5
20260508142214 19 67 3.2 3.2 0.00 0.00 0.03 92 1011.5
20260508141827 18 63 3.2 8.0 0.00 0.03 0.03 92 1010.1
20260508141716 18 53 3.2 6.4 0.00 0.00 0.03 92 1011.2
20260508141321 18 98 3.2 6.4 0.00 0.03 0.03 92 1010.0
20260508141214 18 78 3.2 6.4 0.00 0.00 0.03 92 1011.2
20260508140715 18 76 1.6 6.4 0.00 0.00 0.03 92 1011.2
20260508140213 18 92 1.6 12.9 0.00 0.00 0.03 92 1011.2
20260508135819 18 62 1.6 4.8 0.03 0.03 0.03 93 1010.1
20260508135715 18 32 0.0 4.8 0.00 0.00 0.03 93 1011.2
20260508135319 18 73 0.0 3.2 0.03 0.03 0.03 92 1010.3
20260508135212 18 49 0.0 3.2 0.00 0.00 0.03 92 1011.5
20260508134820 18 350 0.0 3.2 0.03 0.03 0.03 93 1010.2
20260508134713 18 52 0.0 1.6 0.00 0.00 0.03 93 1011.2
20260508134319 18 13 0.0 6.4 0.03 0.03 0.03 93 1010.1
20260508134212 18 355 1.6 1.6 0.00 0.00 0.03 93 1011.5
20260508133817 18 65 1.6 9.7 0.03 0.03 0.03 93 1010.2
20260508133714 18 65 0.0 1.6 0.00 0.00 0.03 93 1011.2
20260508133316 18 342 1.6 9.7 0.03 0.03 0.03 93 1010.1
20260508133214 18 62 3.2 8.0 0.00 0.00 0.03 92 1011.2
20260508132711 18 20 0.0 1.6 0.00 0.00 0.03 93 1011.5
20260508132317 18 50 0.0 4.8 0.03 0.03 0.03 93 1010.3
20260508132212 18 328 0.0 4.8 0.00 0.00 0.03 93 1011.5
20260508131713 18 61 0.0 1.6 0.00 0.00 0.03 92 1011.9
20260508131317 18 61 0.0 1.6 0.03 0.03 0.03 92 1010.7
20260508131211 18 61 0.0 0.0 0.00 0.00 0.03 92 1011.9
20260508130818 18 61 0.0 1.6 0.03 0.03 0.03 92 1010.7
20260508130713 18 61 0.0 1.6 0.00 0.00 0.03 92 1011.9
20260508130316 18 62 0.0 1.6 0.00 0.00 0.00 92 1010.7
20260508130213 18 62 0.0 0.0 0.00 0.00 0.00 92 1011.9
20260508125812 18 61 0.0 1.6 0.00 0.00 0.00 91 1010.9
20260508125710 18 61 0.0 0.0 0.00 0.00 0.00 91 1012.2
20260508125310 18 62 0.0 1.6 0.00 0.00 0.00 91 1011.0
20260508125212 18 61 0.0 1.6 0.00 0.00 0.00 91 1012.2
20260508124812 18 61 0.0 1.6 0.00 0.00 0.00 91 1011.0
20260508124713 18 61 0.0 0.0 0.00 0.00 0.00 91 1012.2
20260508124311 18 61 0.0 1.6 0.00 0.00 0.00 91 1011.2
20260508124211 18 61 0.0 0.0 0.00 0.00 0.00 91 1012.5
20260508123809 18 20 0.0 1.6 0.00 0.00 0.00 91 1011.1
20260508123712 18 20 0.0 1.6 0.00 0.00 0.00 91 1012.2
20260508123309 18 20 0.0 1.6 0.00 0.00 0.00 90 1011.1
20260508123210 18 24 0.0 1.6 0.00 0.00 0.00 90 1012.5
20260508122807 18 9 1.6 4.8 0.00 0.00 0.00 90 1011.0
20260508122715 18 9 0.0 1.6 0.00 0.00 0.00 90 1012.2
20260508122308 18 62 1.6 6.4 0.00 0.00 0.00 90 1010.7
20260508122214 18 62 1.6 4.8 0.00 0.00 0.00 89 1011.9
20260508121806 18 64 1.6 6.4 0.00 0.00 0.00 89 1010.5
20260508121712 18 73 6.4 6.4 0.00 0.00 0.00 89 1011.9
20260508121307 18 65 1.6 6.4 0.00 0.00 0.00 89 1010.5
20260508121212 18 65 3.2 4.8 0.00 0.00 0.00 88 1011.9
20260508120711 18 69 3.2 6.4 0.00 0.00 0.00 88 1011.9
20260508120305 18 65 1.6 8.0 0.00 0.00 0.00 88 1010.5
20260508120211 18 17 4.8 6.4 0.00 0.00 0.00 88 1011.9
20260508115805 18 65 1.6 8.0 0.00 0.00 0.00 88 1010.5
20260508115711 18 36 0.0 4.8 0.00 0.00 0.00 87 1011.9
20260508115306 18 10 1.6 6.4 0.00 0.00 0.00 87 1010.7
20260508115213 18 55 0.0 3.2 0.00 0.00 0.00 87 1011.9
20260508114802 18 55 1.6 8.0 0.00 0.00 0.00 87 1010.6
20260508114714 18 75 4.8 6.4 0.00 0.00 0.00 87 1011.9
20260508114302 18 42 3.2 11.3 0.00 0.00 0.00 87 1010.6
20260508114213 18 22 1.6 8.0 0.00 0.00 0.00 87 1011.9
20260508113803 18 28 3.2 11.3 0.00 0.00 0.00 87 1010.6
20260508113713 18 68 3.2 8.0 0.00 0.00 0.00 87 1011.9
20260508113305 19 61 3.2 12.9 0.00 0.00 0.00 86 1010.9
20260508113211 19 24 3.2 11.3 0.00 0.00 0.00 86 1012.2
20260508112803 19 11 1.6 12.9 0.00 0.00 0.00 87 1010.9
20260508112714 19 32 0.0 6.4 0.00 0.00 0.00 87 1012.2
20260508112306 19 53 3.2 12.9 0.00 0.00 0.00 86 1011.1
20260508112212 19 50 1.6 8.0 0.00 0.00 0.00 86 1012.2
20260508111710 19 19 3.2 12.9 0.00 0.00 0.00 86 1012.2
20260508111300 19 32 1.6 8.0 0.00 0.00 0.00 86 1011.1
20260508111211 19 46 3.2 6.4 0.00 0.00 0.00 86 1012.2
20260508110803 19 71 1.6 14.5 0.00 0.00 0.00 86 1011.2
20260508110713 20 46 3.2 8.0 0.00 0.00 0.00 85 1012.5
20260508110301 20 34 0.0 14.5 0.00 0.00 0.00 85 1011.2
20260508110145 20 338 0.0 3.2 0.00 0.00 0.00 85 1012.5
20260508105800 20 25 0.0 3.2 0.00 0.00 0.00 85 1011.2
20260508105645 20 39 0.0 1.6 0.00 0.00 0.00 85 1012.2
20260508105301 20 82 0.0 3.2 0.00 0.00 0.00 84 1011.0
20260508105147 20 319 1.6 1.6 0.00 0.00 0.00 84 1012.2
20260508104801 20 59 0.0 3.2 0.00 0.00 0.00 84 1011.0
20260508104643 20 301 0.0 0.0 0.00 0.00 0.00 84 1012.2
20260508104301 20 219 0.0 3.2 0.00 0.00 0.00 84 1010.9
20260508104147 20 27 0.0 1.6 0.00 0.00 0.00 84 1011.9
20260508103757 20 355 0.0 0.0 0.00 0.00 0.00 84 1010.5
20260508103644 20 355 0.0 0.0 0.00 0.00 0.00 84 1011.9
20260508103256 20 0 0.0 1.6 0.00 0.00 0.00 83 1010.6
20260508103145 20 0 0.0 0.0 0.00 0.00 0.00 83 1011.9
20260508102756 20 0 0.0 3.2 0.00 0.00 0.00 83 1010.4
20260508102643 20 355 0.0 1.6 0.00 0.00 0.00 83 1011.5
20260508102256 20 334 0.0 3.2 0.00 0.00 0.00 83 1010.3
20260508102143 20 335 0.0 1.6 0.00 0.00 0.00 83 1011.5
20260508101756 20 58 0.0 3.2 0.00 0.00 0.00 82 1010.2
20260508101642 20 57 0.0 1.6 0.00 0.00 0.00 83 1011.2
20260508101258 20 47 1.6 6.4 0.00 0.00 0.00 82 1009.8
20260508101144 20 75 0.0 3.2 0.00 0.00 0.00 82 1010.8
20260508100757 20 82 3.2 6.4 0.00 0.00 0.00 82 1009.9
20260508100644 20 63 1.6 6.4 0.00 0.00 0.00 82 1010.8
20260508100257 20 52 1.6 4.8 0.00 0.00 0.00 82 1009.7
20260508100145 20 79 0.0 4.8 0.00 0.00 0.00 82 1010.8
20260508095757 20 69 1.6 6.4 0.00 0.00 0.00 82 1009.7
20260508095645 20 13 1.6 1.6 0.00 0.00 0.00 82 1010.8
20260508095252 20 26 1.6 6.4 0.00 0.00 0.00 82 1009.9
20260508095144 20 46 1.6 6.4 0.00 0.00 0.00 82 1010.8
20260508094754 20 84 1.6 6.4 0.00 0.00 0.00 82 1009.8
20260508094643 20 57 3.2 6.4 0.00 0.00 0.00 82 1010.8
20260508094254 20 66 1.6 6.4 0.00 0.00 0.00 82 1009.9
20260508094143 20 44 3.2 3.2 0.00 0.00 0.00 82 1011.2
20260508093753 20 351 1.6 8.0 0.00 0.00 0.00 82 1010.2
20260508093640 20 43 1.6 3.2 0.00 0.00 0.00 82 1011.5
20260508093253 20 40 1.6 9.7 0.00 0.00 0.00 82 1010.3
20260508093143 20 25 1.6 8.0 0.00 0.00 0.00 82 1011.5
20260508092753 20 29 1.6 9.7 0.00 0.00 0.00 81 1010.6
20260508092640 20 23 1.6 6.4 0.00 0.00 0.00 82 1011.9
20260508092253 20 30 0.0 6.4 0.00 0.00 0.00 81 1010.9
20260508092142 20 43 3.2 6.4 0.00 0.00 0.00 81 1012.2
20260508091639 20 0 0.0 1.6 0.00 0.00 0.00 82 1012.5
20260508091253 20 309 0.0 0.0 0.00 0.00 0.00 82 1011.3
20260508091141 20 309 0.0 0.0 0.00 0.00 0.00 82 1012.5
20260508090750 20 309 0.0 0.0 0.00 0.00 0.00 82 1011.4
20260508090648 20 319 0.0 0.0 0.00 0.00 0.00 82 1012.5
20260508090141 20 39 0.0 0.0 0.00 0.00 0.00 82 1012.2
20260508085749 20 39 0.0 1.6 0.00 0.00 0.00 82 1010.7
20260508085641 20 39 0.0 1.6 0.00 0.00 0.00 82 1011.9
20260508085250 20 40 0.0 3.2 0.00 0.00 0.00 82 1010.4
20260508085139 20 40 0.0 0.0 0.00 0.00 0.00 82 1011.9
20260508084641 20 41 0.0 0.0 0.00 0.00 0.00 82 1011.9
20260508084248 20 41 0.0 0.0 0.00 0.00 0.00 82 1010.6
20260508084140 20 41 0.0 0.0 0.00 0.00 0.00 82 1011.9
20260508083639 20 41 0.0 0.0 0.00 0.00 0.00 82 1011.9
20260508083140 20 41 0.0 0.0 0.00 0.00 0.00 82 1011.9
20260508082748 20 41 0.0 1.6 0.00 0.00 0.00 82 1010.4
20260508082639 20 41 0.0 0.0 0.00 0.00 0.00 82 1011.5
20260508082249 20 41 0.0 1.6 0.00 0.00 0.00 82 1010.4
20260508082141 20 41 0.0 0.0 0.00 0.00 0.00 82 1011.5
20260508081641 20 40 0.0 0.0 0.00 0.00 0.00 82 1011.5
20260508081248 20 40 0.0 1.6 0.00 0.00 0.00 82 1010.2
20260508081138 20 40 0.0 0.0 0.00 0.00 0.00 82 1011.5
20260508080749 20 40 0.0 1.6 0.00 0.00 0.00 81 1010.3
20260508080637 20 44 0.0 1.6 0.00 0.00 0.00 81 1011.5
20260508080248 20 45 0.0 1.6 0.00 0.00 0.00 81 1010.5
20260508080138 20 45 0.0 1.6 0.00 0.00 0.00 81 1011.9
20260508075749 20 28 0.0 3.2 0.00 0.00 0.00 81 1010.5
20260508075640 20 30 0.0 1.6 0.00 0.00 0.00 82 1011.9
20260508075248 20 33 1.6 6.4 0.00 0.00 0.00 81 1010.4
20260508075139 20 33 0.0 3.2 0.00 0.00 0.00 81 1011.5
20260508074749 20 24 1.6 6.4 0.00 0.00 0.00 81 1010.4
20260508074640 20 65 1.6 3.2 0.00 0.00 0.00 81 1011.5
20260508074249 20 28 0.0 6.4 0.00 0.00 0.00 81 1010.6
20260508074139 20 29 1.6 3.2 0.00 0.00 0.00 81 1011.9
20260508073749 20 26 0.0 1.6 0.00 0.00 0.00 81 1010.8
20260508073637 20 26 0.0 0.0 0.00 0.00 0.00 81 1011.9
20260508073250 20 27 0.0 1.6 0.00 0.00 0.00 81 1010.6
20260508073137 20 24 0.0 0.0 0.00 0.00 0.00 81 1011.9
20260508072749 20 17 0.0 1.6 0.00 0.00 0.00 81 1010.7
20260508072635 20 67 0.0 1.6 0.00 0.00 0.00 81 1011.9
20260508072248 20 71 0.0 1.6 0.00 0.00 0.00 81 1010.8
20260508072137 20 70 0.0 1.6 0.00 0.00 0.00 81 1012.2
20260508071749 20 71 0.0 1.6 0.00 0.00 0.00 81 1011.0
20260508071638 20 71 0.0 0.0 0.00 0.00 0.00 81 1012.2
20260508071138 20 71 0.0 0.0 0.00 0.00 0.00 81 1012.5
20260508070748 20 64 1.6 6.4 0.00 0.00 0.00 81 1011.2
20260508070637 20 57 0.0 0.0 0.00 0.00 0.00 81 1012.5
20260508070249 20 40 1.6 8.0 0.00 0.00 0.00 81 1011.4
20260508070143 20 23 0.0 6.4 0.00 0.00 0.00 81 1012.5
20260508065635 20 340 0.0 8.0 0.00 0.00 0.00 81 1012.9
20260508065244 20 299 1.6 8.0 0.00 0.00 0.00 81 1011.7
20260508065135 20 346 0.0 0.0 0.00 0.00 0.00 81 1012.9
20260508064745 20 28 1.6 6.4 0.00 0.00 0.00 81 1011.7
20260508064634 20 49 3.2 4.8 0.00 0.00 0.00 81 1012.9
20260508064244 20 9 1.6 6.4 0.00 0.00 0.00 81 1011.7
20260508064135 20 340 0.0 4.8 0.00 0.00 0.00 81 1012.9
20260508063745 20 24 1.6 6.4 0.00 0.00 0.00 81 1011.8
20260508063634 20 26 0.0 6.4 0.00 0.00 0.00 81 1012.9
20260508063245 20 25 0.0 4.8 0.00 0.00 0.00 81 1011.7
20260508063133 20 32 4.8 4.8 0.00 0.00 0.00 81 1012.9
20260508062746 20 22 0.0 0.0 0.00 0.00 0.00 81 1011.7
20260508062633 20 23 0.0 0.0 0.00 0.00 0.00 81 1012.9
20260508062244 20 19 0.0 1.6 0.00 0.00 0.00 81 1011.9
20260508062132 20 22 0.0 0.0 0.00 0.00 0.00 81 1013.2
20260508061746 20 23 0.0 1.6 0.00 0.00 0.00 81 1012.0
20260508061634 20 75 0.0 1.6 0.00 0.00 0.00 81 1013.2
20260508061244 20 73 0.0 3.2 0.00 0.00 0.00 81 1012.1
20260508061133 20 25 0.0 0.0 0.00 0.00 0.00 81 1013.2
20260508060746 20 25 0.0 6.4 0.00 0.00 0.00 81 1012.2
20260508060635 20 25 0.0 3.2 0.00 0.00 0.00 81 1013.2
20260508060246 20 30 0.0 6.4 0.00 0.00 0.00 81 1012.0
20260508060138 20 32 1.6 6.4 0.00 0.00 0.00 81 1013.2
20260508055746 20 19 1.6 6.4 0.00 0.00 0.00 81 1012.0
20260508055633 20 329 0.0 1.6 0.00 0.00 0.00 81 1013.2
20260508055246 20 36 1.6 8.0 0.00 0.00 0.00 81 1011.7
20260508055133 20 33 0.0 3.2 0.00 0.00 0.00 81 1012.9
20260508054746 20 13 1.6 8.0 0.00 0.00 0.00 81 1011.7
20260508054634 20 341 0.0 8.0 0.00 0.00 0.00 81 1012.9
20260508054245 20 38 0.0 3.2 0.00 0.00 0.00 81 1011.6
20260508054133 20 30 0.0 3.2 0.00 0.00 0.00 81 1012.9
20260508053638 20 350 3.2 3.2 0.00 0.00 0.00 82 1012.5
20260508053245 20 46 0.0 3.2 0.00 0.00 0.00 81 1011.5
20260508053131 20 26 1.6 3.2 0.00 0.00 0.00 81 1012.5
20260508052634 21 28 1.6 1.6 0.00 0.00 0.00 82 1012.5
20260508052245 21 27 1.6 9.7 0.00 0.00 0.00 82 1011.3
20260508052132 21 32 0.0 3.2 0.00 0.00 0.00 82 1012.5
20260508051744 21 31 1.6 9.7 0.00 0.00 0.00 82 1011.3
20260508051631 21 41 0.0 4.8 0.00 0.00 0.00 82 1012.5
20260508051245 21 37 0.0 4.8 0.00 0.00 0.00 82 1011.6
20260508051131 21 37 0.0 1.6 0.00 0.00 0.00 82 1012.9
20260508050744 21 25 1.6 6.4 0.00 0.00 0.00 82 1011.7
20260508050632 21 32 0.0 1.6 0.00 0.00 0.00 82 1012.9
20260508050242 21 34 0.0 6.4 0.00 0.00 0.00 82 1011.4
20260508050133 21 34 1.6 4.8 0.00 0.00 0.00 82 1012.5
20260508045631 21 337 0.0 1.6 0.00 0.00 0.00 82 1012.9
20260508045131 21 337 0.0 3.2 0.00 0.00 0.00 82 1012.5
20260508044739 21 30 0.0 6.4 0.00 0.00 0.00 82 1011.3
20260508044632 21 27 3.2 3.2 0.00 0.00 0.00 83 1012.5
20260508044236 21 324 0.0 4.8 0.00 0.00 0.00 83 1011.2
20260508044129 21 350 1.6 4.8 0.00 0.00 0.00 84 1012.5
20260508043735 21 336 0.0 1.6 0.00 0.00 0.00 85 1011.2
20260508043629 21 318 0.0 0.0 0.00 0.00 0.00 84 1012.5
20260508043236 21 318 0.0 4.8 0.00 0.00 0.00 84 1011.1
20260508043130 21 30 0.0 0.0 0.00 0.00 0.00 84 1012.2
20260508042630 21 57 3.2 4.8 0.00 0.00 0.00 84 1011.9
20260508042129 22 63 0.0 3.2 0.00 0.00 0.00 83 1011.9
20260508041734 22 54 3.2 8.0 0.00 0.00 0.00 83 1010.5
20260508041631 22 61 1.6 6.4 0.00 0.00 0.00 83 1011.5
20260508041232 22 63 1.6 6.4 0.00 0.00 0.00 83 1010.4
20260508041129 22 67 0.0 6.4 0.00 0.00 0.00 82 1011.9
20260508040733 22 67 1.6 6.4 0.00 0.00 0.00 82 1010.5
20260508040628 22 64 1.6 6.4 0.00 0.00 0.00 82 1011.9
20260508040232 22 95 1.6 4.8 0.00 0.00 0.00 82 1010.8
20260508040127 22 95 0.0 0.0 0.00 0.00 0.00 82 1011.9
20260508035630 22 78 0.0 4.8 0.00 0.00 0.00 82 1011.9
20260508035228 22 71 1.6 8.0 0.00 0.00 0.00 82 1010.4